Time,TemperatureF,DewpointF,PressureIn,WindDirection,WindDirectionDegrees,WindSpeedMPH,WindSpeedGustMPH,Humidity,HourlyPrecipIn,Conditions,Clouds,dailyrainin,SolarRadiationWatts/m^2,SoftwareType,DateUTC
2013-01-01 00:23:00,28.0,25.0,29.87,WSW,246,6.0,-999.0,88,-99.99,,,0.00,0,weatherlink.com 1.10,2013-01-01 05:23:00,
2013-01-01 00:38:00,28.1,25.0,29.87,WSW,241,8.0,-999.0,88,-99.99,,,0.00,0,weatherlink.com 1.10,2013-01-01 05:38:00,
2013-01-01 00:53:00,28.1,25.0,29.86,SW,234,16.0,-999.0,89,-99.99,,,0.00,0,weatherlink.com 1.10,2013-01-01 05:53:00,
2013-01-01 01:08:00,28.1,25.0,29.86,NW,308,5.0,-999.0,89,-99.99,,,0.00,0,weatherlink.com 1.10,2013-01-01 06:08:00,
2013-01-01 01:23:00,28.1,25.0,29.87,WSW,242,6.0,-999.0,89,-99.99,,,0.00,0,weatherlink.com 1.10,2013-01-01 06:23:00,
2013-01-01 01:38:00,28.0,26.0,29.86,WSW,244,5.0,-999.0,90,-99.99,,,0.00,0,weatherlink.com 1.10,2013-01-01 06:38:00,
2013-01-01 01:53:00,28.0,26.0,29.86,WNW,298,5.0,-999.0,90,-99.99,,,0.00,0,weatherlink.com 1.10,2013-01-01 06:53:00,
2013-01-01 02:08:00,28.0,26.0,29.85,WNW,303,3.0,-999.0,90,-99.99,,,0.00,0,weatherlink.com 1.10,2013-01-01 07:08:00,
2013-01-01 02:23:00,28.2,25.0,29.86,WSW,252,9.0,-999.0,89,-99.99,,,0.00,0,weatherlink.com 1.10,2013-01-01 07:23:00,
2013-01-01 02:38:00,28.3,26.0,29.86,WSW,240,6.0,-999.0,89,-99.99,,,0.00,0,weatherlink.com 1.10,2013-01-01 07:38:00,
2013-01-01 02:53:00,28.3,25.0,29.85,West,272,9.0,-999.0,88,-99.99,,,0.00,0,weatherlink.com 1.10,2013-01-01 07:53:00,
2013-01-01 03:08:00,28.3,25.0,29.86,SW,236,11.0,-999.0,88,-99.99,,,0.00,0,weatherlink.com 1.10,2013-01-01 08:08:00,
2013-01-01 03:38:00,28.4,25.0,29.86,SW,235,5.0,-999.0,86,-99.99,,,0.00,0,weatherlink.com 1.10,2013-01-01 08:38:00,
2013-01-01 03:54:00,28.3,25.0,29.87,SW,232,7.0,-999.0,87,-99.99,,,0.00,0,weatherlink.com 1.10,2013-01-01 08:54:00,
2013-01-01 04:08:00,28.1,25.0,29.86,WSW,240,6.0,-999.0,87,-99.99,,,0.00,0,weatherlink.com 1.10,2013-01-01 09:08:00,
2013-01-01 04:23:00,27.8,24.0,29.86,SSW,192,8.0,-999.0,86,-99.99,,,0.00,0,weatherlink.com 1.10,2013-01-01 09:23:00,
2013-01-01 04:38:00,27.6,24.0,29.86,WSW,245,7.0,-999.0,86,-99.99,,,0.00,0,weatherlink.com 1.10,2013-01-01 09:38:00,
2013-01-01 04:53:00,27.8,24.0,29.87,SW,225,7.0,-999.0,86,-99.99,,,0.00,0,weatherlink.com 1.10,2013-01-01 09:53:00,
2013-01-01 05:08:00,27.7,24.0,29.87,WNW,299,6.0,-999.0,86,-99.99,,,0.00,0,weatherlink.com 1.10,2013-01-01 10:08:00,
2013-01-01 05:23:00,27.7,24.0,29.87,West,261,11.0,-999.0,85,-99.99,,,0.00,0,weatherlink.com 1.10,2013-01-01 10:23:00,
2013-01-01 05:38:00,27.5,24.0,29.88,SW,227,4.0,-999.0,86,-99.99,,,0.00,0,weatherlink.com 1.10,2013-01-01 10:38:00,
2013-01-01 05:53:00,27.2,24.0,29.88,WSW,255,8.0,-999.0,87,-99.99,,,0.00,0,weatherlink.com 1.10,2013-01-01 10:53:00,
2013-01-01 06:08:00,26.9,24.0,29.89,WSW,255,3.0,-999.0,87,-99.99,,,0.00,0,weatherlink.com 1.10,2013-01-01 11:08:00,
2013-01-01 06:23:00,26.5,23.0,29.90,WNW,285,5.0,-999.0,87,-99.99,,,0.00,0,weatherlink.com 1.10,2013-01-01 11:23:00,
2013-01-01 06:38:00,26.3,23.0,29.90,WNW,299,4.0,-999.0,87,-99.99,,,0.00,0,weatherlink.com 1.10,2013-01-01 11:38:00,
2013-01-01 06:53:00,26.1,23.0,29.90,SW,217,1.0,-999.0,87,-99.99,,,0.00,0,weatherlink.com 1.10,2013-01-01 11:53:00,
2013-01-01 07:08:00,26.0,22.0,29.90,WSW,253,5.0,-999.0,86,-99.99,,,0.00,0,weatherlink.com 1.10,2013-01-01 12:08:00,
2013-01-01 07:23:00,25.7,22.0,29.91,WSW,254,12.0,-999.0,86,-99.99,,,0.00,0,weatherlink.com 1.10,2013-01-01 12:23:00,
2013-01-01 07:38:00,25.4,22.0,29.91,WNW,290,9.0,-999.0,86,-99.99,,,0.00,0,weatherlink.com 1.10,2013-01-01 12:38:00,
2013-01-01 07:53:00,25.2,22.0,29.90,WSW,245,10.0,-999.0,87,-99.99,,,0.00,7,weatherlink.com 1.10,2013-01-01 12:53:00,
2013-01-01 08:08:00,24.9,22.0,29.90,SW,234,0.0,-999.0,87,-99.99,,,0.00,18,weatherlink.com 1.10,2013-01-01 13:08:00,
2013-01-01 08:23:00,24.8,22.0,29.90,West,281,3.0,-999.0,87,-99.99,,,0.00,46,weatherlink.com 1.10,2013-01-01 13:23:00,
2013-01-01 08:38:00,24.9,22.0,29.90,SW,220,1.0,-999.0,88,-99.99,,,0.00,69,weatherlink.com 1.10,2013-01-01 13:38:00,
2013-01-01 08:53:00,25.1,22.0,29.90,NW,305,9.0,-999.0,87,-99.99,,,0.00,105,weatherlink.com 1.10,2013-01-01 13:53:00,
2013-01-01 09:08:00,25.2,22.0,29.91,WNW,292,3.0,-999.0,86,-99.99,,,0.00,58,weatherlink.com 1.10,2013-01-01 14:08:00,
2013-01-01 09:23:00,25.0,22.0,29.91,WSW,247,17.0,-999.0,87,-99.99,,,0.00,69,weatherlink.com 1.10,2013-01-01 14:23:00,
2013-01-01 09:38:00,24.9,21.0,29.92,WNW,292,2.0,-999.0,86,-99.99,,,0.00,46,weatherlink.com 1.10,2013-01-01 14:38:00,
2013-01-01 09:53:00,24.6,21.0,29.92,WNW,285,4.0,-999.0,87,-99.99,,,0.00,54,weatherlink.com 1.10,2013-01-01 14:53:00,
2013-01-01 10:08:00,24.4,21.0,29.92,West,281,2.0,-999.0,88,-99.99,,,0.00,137,weatherlink.com 1.10,2013-01-01 15:08:00,
2013-01-01 10:23:00,24.3,21.0,29.93,WNW,299,2.0,-999.0,87,-99.99,,,0.00,63,weatherlink.com 1.10,2013-01-01 15:23:00,
2013-01-01 10:38:00,23.8,20.0,29.92,North,355,3.0,-999.0,86,-99.99,,,0.00,70,weatherlink.com 1.10,2013-01-01 15:38:00,
2013-01-01 10:53:00,23.3,20.0,29.93,WNW,291,8.0,-999.0,86,-99.99,,,0.00,113,weatherlink.com 1.10,2013-01-01 15:53:00,
2013-01-01 11:08:00,23.1,20.0,29.93,West,267,7.0,-999.0,86,-99.99,,,0.00,100,weatherlink.com 1.10,2013-01-01 16:08:00,
2013-01-01 11:23:00,22.8,19.0,29.92,WNW,300,3.0,-999.0,86,-99.99,,,0.00,181,weatherlink.com 1.10,2013-01-01 16:23:00,
2013-01-01 11:38:00,23.1,20.0,29.92,West,263,4.0,-999.0,86,-99.99,,,0.00,132,weatherlink.com 1.10,2013-01-01 16:38:00,
2013-01-01 11:53:00,22.9,19.0,29.91,NW,305,2.0,-999.0,86,-99.99,,,0.00,209,weatherlink.com 1.10,2013-01-01 16:53:00,
2013-01-01 12:08:00,22.9,19.0,29.90,WNW,284,3.0,-999.0,85,-99.99,,,0.00,250,weatherlink.com 1.10,2013-01-01 17:08:00,
2013-01-01 12:23:00,23.4,19.0,29.90,West,275,5.0,-999.0,84,-99.99,,,0.00,121,weatherlink.com 1.10,2013-01-01 17:23:00,
2013-01-01 12:38:00,23.0,19.0,29.91,East,92,3.0,-999.0,83,-99.99,,,0.00,105,weatherlink.com 1.10,2013-01-01 17:38:00,
2013-01-01 12:53:00,22.7,18.0,29.89,West,264,4.0,-999.0,82,-99.99,,,0.00,156,weatherlink.com 1.10,2013-01-01 17:53:00,
2013-01-01 13:08:00,22.9,18.0,29.90,West,271,6.0,-999.0,82,-99.99,,,0.00,221,weatherlink.com 1.10,2013-01-01 18:08:00,
2013-01-01 13:23:00,22.9,18.0,29.91,WNW,289,9.0,-999.0,82,-99.99,,,0.00,151,weatherlink.com 1.10,2013-01-01 18:23:00,
2013-01-01 13:38:00,22.3,18.0,29.91,NNW,344,9.0,-999.0,82,-99.99,,,0.00,162,weatherlink.com 1.10,2013-01-01 18:38:00,
2013-01-01 13:53:00,22.1,17.0,29.91,NW,323,5.0,-999.0,81,-99.99,,,0.00,165,weatherlink.com 1.10,2013-01-01 18:53:00,
2013-01-01 14:08:00,21.2,16.0,29.90,WSW,241,7.0,-999.0,81,-99.99,,,0.00,149,weatherlink.com 1.10,2013-01-01 19:08:00,
2013-01-01 14:23:00,20.9,16.0,29.90,SW,223,4.0,-999.0,82,-99.99,,,0.00,104,weatherlink.com 1.10,2013-01-01 19:23:00,
2013-01-01 14:38:00,20.6,16.0,29.91,NNE,32,2.0,-999.0,82,-99.99,,,0.00,172,weatherlink.com 1.10,2013-01-01 19:38:00,
2013-01-01 14:53:00,20.1,15.0,29.91,West,277,2.0,-999.0,82,-99.99,,,0.00,74,weatherlink.com 1.10,2013-01-01 19:53:00,
2013-01-01 15:08:00,20.0,15.0,29.92,SW,234,1.0,-999.0,81,-99.99,,,0.00,14,weatherlink.com 1.10,2013-01-01 20:08:00,
2013-01-01 15:23:00,19.7,15.0,29.93,WNW,288,10.0,-999.0,82,-99.99,,,0.00,42,weatherlink.com 1.10,2013-01-01 20:23:00,
2013-01-01 15:38:00,19.5,15.0,29.95,SE,146,1.0,-999.0,81,-99.99,,,0.00,62,weatherlink.com 1.10,2013-01-01 20:38:00,
2013-01-01 15:53:00,19.1,14.0,29.94,SSW,202,7.0,-999.0,80,-99.99,,,0.00,30,weatherlink.com 1.10,2013-01-01 20:53:00,
2013-01-01 16:08:00,18.8,14.0,29.95,WNW,286,10.0,-999.0,81,-99.99,,,0.00,14,weatherlink.com 1.10,2013-01-01 21:08:00,
2013-01-01 16:23:00,18.1,14.0,29.95,NNW,344,6.0,-999.0,82,-99.99,,,0.00,12,weatherlink.com 1.10,2013-01-01 21:23:00,
2013-01-01 16:38:00,17.7,13.0,29.96,NW,316,5.0,-999.0,81,-99.99,,,0.00,0,weatherlink.com 1.10,2013-01-01 21:38:00,
2013-01-01 16:53:00,17.5,13.0,29.95,SW,221,7.0,-999.0,82,-99.99,,,0.00,0,weatherlink.com 1.10,2013-01-01 21:53:00,
2013-01-01 17:08:00,17.1,13.0,29.97,WNW,284,2.0,-999.0,83,-99.99,,,0.00,0,weatherlink.com 1.10,2013-01-01 22:08:00,
2013-01-01 17:23:00,16.9,13.0,29.97,NW,322,1.0,-999.0,83,-99.99,,,0.00,0,weatherlink.com 1.10,2013-01-01 22:23:00,
2013-01-01 17:38:00,16.5,12.0,29.98,WSW,239,3.0,-999.0,83,-99.99,,,0.00,0,weatherlink.com 1.10,2013-01-01 22:38:00,
2013-01-01 17:53:00,15.9,11.0,29.99,NNW,328,5.0,-999.0,82,-99.99,,,0.00,0,weatherlink.com 1.10,2013-01-01 22:53:00,
2013-01-01 18:08:00,15.5,11.0,29.99,WSW,246,0.0,-999.0,82,-99.99,,,0.00,0,weatherlink.com 1.10,2013-01-01 23:08:00,
2013-01-01 18:23:00,15.1,11.0,30.00,SW,214,3.0,-999.0,82,-99.99,,,0.00,0,weatherlink.com 1.10,2013-01-01 23:23:00,
2013-01-01 18:38:00,14.6,10.0,30.01,WSW,257,2.0,-999.0,81,-99.99,,,0.00,0,weatherlink.com 1.10,2013-01-01 23:38:00,
2013-01-01 18:53:00,14.2,9.0,30.02,SW,228,4.0,-999.0,81,-99.99,,,0.00,0,weatherlink.com 1.10,2013-01-01 23:53:00,
2013-01-01 19:08:00,13.7,9.0,30.02,WSW,254,3.0,-999.0,82,-99.99,,,0.00,0,weatherlink.com 1.10,2013-01-02 00:08:00,
2013-01-01 19:23:00,13.2,9.0,30.02,SW,221,2.0,-999.0,82,-99.99,,,0.00,0,weatherlink.com 1.10,2013-01-02 00:23:00,
2013-01-01 19:38:00,13.0,9.0,30.02,SW,223,5.0,-999.0,82,-99.99,,,0.00,0,weatherlink.com 1.10,2013-01-02 00:38:00,
2013-01-01 19:53:00,12.8,8.0,30.02,WSW,244,4.0,-999.0,82,-99.99,,,0.00,0,weatherlink.com 1.10,2013-01-02 00:53:00,
2013-01-01 20:08:00,12.7,8.0,30.00,SSW,204,3.0,-999.0,82,-99.99,,,0.00,0,weatherlink.com 1.10,2013-01-02 01:08:00,
2013-01-01 20:23:00,12.5,8.0,30.01,West,269,1.0,-999.0,83,-99.99,,,0.00,0,weatherlink.com 1.10,2013-01-02 01:23:00,
2013-01-01 20:38:00,12.5,8.0,30.01,SSW,198,1.0,-999.0,83,-99.99,,,0.00,0,weatherlink.com 1.10,2013-01-02 01:38:00,
2013-01-01 20:53:00,12.3,8.0,30.00,SW,221,5.0,-999.0,83,-99.99,,,0.00,0,weatherlink.com 1.10,2013-01-02 01:53:00,
2013-01-01 21:08:00,12.3,8.0,30.01,SW,236,3.0,-999.0,83,-99.99,,,0.00,0,weatherlink.com 1.10,2013-01-02 02:08:00,
2013-01-01 21:23:00,12.0,8.0,30.01,SW,223,1.0,-999.0,83,-99.99,,,0.00,0,weatherlink.com 1.10,2013-01-02 02:23:00,
2013-01-01 21:38:00,11.6,7.0,30.01,SW,221,1.0,-999.0,83,-99.99,,,0.00,0,weatherlink.com 1.10,2013-01-02 02:38:00,
2013-01-01 21:53:00,11.0,7.0,30.01,SSW,201,0.0,-999.0,83,-99.99,,,0.00,0,weatherlink.com 1.10,2013-01-02 02:53:00,
2013-01-01 22:08:00,10.6,7.0,30.01,SW,214,4.0,-999.0,84,-99.99,,,0.00,0,weatherlink.com 1.10,2013-01-02 03:08:00,
2013-01-01 22:23:00,10.4,7.0,30.02,SSW,194,0.0,-999.0,84,-99.99,,,0.00,0,weatherlink.com 1.10,2013-01-02 03:23:00,
2013-01-01 22:38:00,10.5,7.0,30.02,SW,219,0.0,-999.0,84,-99.99,,,0.00,0,weatherlink.com 1.10,2013-01-02 03:38:00,
2013-01-01 22:53:00,10.7,7.0,30.02,SSW,198,1.0,-999.0,85,-99.99,,,0.00,0,weatherlink.com 1.10,2013-01-02 03:53:00,
2013-01-01 23:08:00,10.8,7.0,30.02,SW,225,1.0,-999.0,85,-99.99,,,0.00,0,weatherlink.com 1.10,2013-01-02 04:08:00,
2013-01-01 23:23:00,11.1,7.0,30.02,SSW,192,2.0,-999.0,84,-99.99,,,0.00,0,weatherlink.com 1.10,2013-01-02 04:23:00,
2013-01-01 23:38:00,11.0,7.0,30.02,SSW,205,1.0,-999.0,84,-99.99,,,0.00,0,weatherlink.com 1.10,2013-01-02 04:38:00,
2013-01-01 23:53:00,10.8,7.0,30.02,SW,230,2.0,-999.0,85,-99.99,,,0.00,0,weatherlink.com 1.10,2013-01-02 04:53:00,